STARLINK-30233, 57302

Orbit data source: Space-Track

STARLINK-30233, 57302 is a payload satellite owned by SpaceX/Seattle (US) in LEO that was launched on Mon, 10 Jul 2023 UTC via an FALCON 9 launch vehicle from the Air Force Eastern Test Range (AFETR). Payload-class satellites include a variety of spacecraft equipped with specific instruments for various scientific and technological missions. These include communications satellites like Starlink; space stations such as the ISS; scientific satellites like the Hubble; Earth observation satellites from companies like Planet Labs, Umbra, and HawkEye 360; GPS; miniature CubeSats for education and research; and military/defense satellites.

Loading next visibility...
Identifier
57302, 2023-096N
Orbit
LEO
Country
Flag of USUS
Related business
Manufacturer
SpaceX/Seattle
Mission
Operational Commercial Communications
Bus & Motor
STARLINK V2M, Unknown motor
Mass
730 kg wet, ~700 kg dry
Launch date (UTC)
2023-07-10 (3 years ago)
Launch vehicle
FALCON 9
Launch site
Air Force Eastern Test Range (AFETR)
Object type
Payload
Rocket body
Debris
Shape & HBR
Box + 2 Pan, 17.7 m
Radar Cross Section
33.884 m², Large (>1 m²)

Expand to show TLE details & history
Last TLE update: 3 days ago

TLE from 3 days ago
0 STARLINK-30233
1 57302U 23096N   26170.93709211  .00005359  00000-0  20392-3 0  9996
2 57302  43.0033   5.8170 0001782 259.7124 100.3527 15.27612164162351
Epoch: 2026-06-19T22:29Z
TLE epoch observation values (Epoch: 2026-06-19T22:29:24.758Z)
Latitude
Longitude
120.30494°
Altitude
482.948 km
Speed
7.626 km/s
True Right ascension
00h 23m 16s
True Declination
0° 00' 00"
Sunlit
Object was in daylight at epoch
Visualization orbit readout
Latitude
Unknown
Longitude
Unknown
Altitude
Unknown
Speed
Unknown
Apparent Right ascension
Unknown
Apparent Declination
Unknown
Sunlit
N/A
Visualization observer readout
Local Sidereal Time
21:39:54
Azimuth
Unknown
Elevation
Unknown
Doppler factor
Unknown
Orbital elements
Apogee altitude
486.12 km
Perigee altitude
483.674 km
Semi-major axis
6,863.034 km
Eccentricity
0.00018
Inclination
43.0033°
RAAN
5.817°
Arg. of periapsis
259.7124°
True anomaly
100.37279°
Mean anomaly
100.3527°
Eccentric anomaly
100.36274°
Mean motion
3.81741 °/min
Orbital period
94.3 mins
BSTAR
0.00020392
Loading maneuver chart data...
Computing Atmospheric mass density...

Documentation

Showing up to 5 results
|